Time,TemperatureF,DewpointF,PressureIn,WindDirection,WindDirectionDegrees,WindSpeedMPH,WindSpeedGustMPH,Humidity,HourlyPrecipIn,Conditions,Clouds,dailyrainin,SoftwareType,DateUTC
2013-01-01 00:03:00,68.0,58.0,30.19,SSE,163,4.0,7.0,71,-99.99,,,-99.99,,2013-01-01 05:03:00,
2013-01-01 00:12:00,67.0,58.0,30.19,SSE,148,2.0,4.0,72,-99.99,,,-99.99,,2013-01-01 05:12:00,
2013-01-01 00:22:00,67.0,58.0,30.19,SSE,148,2.0,4.0,72,-99.99,,,-99.99,,2013-01-01 05:22:00,
2013-01-01 00:33:00,67.0,58.0,30.19,SSE,148,2.0,4.0,72,-99.99,,,-99.99,,2013-01-01 05:33:00,
2013-01-01 00:42:00,67.0,60.0,30.18,SE,146,3.0,4.0,79,-99.99,,,-99.99,,2013-01-01 05:42:00,
2013-01-01 00:53:00,67.0,59.0,30.18,SE,143,4.0,7.0,76,-99.99,,,-99.99,,2013-01-01 05:53:00,
2013-01-01 01:02:00,67.0,59.0,30.18,SE,143,4.0,7.0,76,-99.99,,,-99.99,,2013-01-01 06:02:00,
2013-01-01 01:12:00,67.0,59.0,30.18,SE,131,4.0,6.0,74,-99.99,,,-99.99,,2013-01-01 06:12:00,
2013-01-01 01:22:00,67.0,59.0,30.18,SE,131,4.0,6.0,74,-99.99,,,-99.99,,2013-01-01 06:22:00,
2013-01-01 01:32:00,68.0,59.0,30.17,ESE,120,4.0,7.0,72,-99.99,,,-99.99,,2013-01-01 06:32:00,
2013-01-01 01:42:00,68.0,59.0,30.17,ESE,122,3.0,6.0,72,-99.99,,,-99.99,,2013-01-01 06:42:00,
2013-01-01 01:52:00,67.0,60.0,30.17,SE,127,3.0,4.0,78,-99.99,,,-99.99,,2013-01-01 06:52:00,
2013-01-01 02:02:00,67.0,60.0,30.17,SE,127,3.0,4.0,78,-99.99,,,-99.99,,2013-01-01 07:02:00,
2013-01-01 02:12:00,67.0,59.0,30.17,SSE,150,4.0,6.0,77,-99.99,,,-99.99,,2013-01-01 07:12:00,
2013-01-01 02:22:00,67.0,59.0,30.17,SSE,150,4.0,6.0,77,-99.99,,,-99.99,,2013-01-01 07:22:00,
2013-01-01 02:32:00,67.0,59.0,30.17,SE,136,3.0,4.0,76,-99.99,,,-99.99,,2013-01-01 07:32:00,
2013-01-01 02:42:00,66.0,59.0,30.17,East,96,2.0,4.0,77,-99.99,,,-99.99,,2013-01-01 07:42:00,
2013-01-01 02:53:00,65.0,60.0,30.16,ENE,71,2.0,4.0,83,-99.99,,,-99.99,,2013-01-01 07:53:00,
2013-01-01 03:02:00,65.0,60.0,30.16,ENE,71,2.0,4.0,83,-99.99,,,-99.99,,2013-01-01 08:02:00,
2013-01-01 03:12:00,64.0,60.0,30.16,ENE,78,3.0,4.0,86,-99.99,,,-99.99,,2013-01-01 08:12:00,
2013-01-01 03:22:00,64.0,60.0,30.16,ENE,78,3.0,4.0,86,-99.99,,,-99.99,,2013-01-01 08:22:00,
2013-01-01 03:32:00,64.0,60.0,30.16,ENE,78,3.0,4.0,86,-99.99,,,-99.99,,2013-01-01 08:32:00,
2013-01-01 03:42:00,65.0,60.0,30.16,East,89,3.0,4.0,84,-99.99,,,-99.99,,2013-01-01 08:42:00,
2013-01-01 03:53:00,66.0,60.0,30.16,ENE,72,2.0,3.0,81,-99.99,,,-99.99,,2013-01-01 08:53:00,
2013-01-01 04:02:00,66.0,60.0,30.16,ENE,72,2.0,3.0,81,-99.99,,,-99.99,,2013-01-01 09:02:00,
2013-01-01 04:12:00,66.0,61.0,30.16,ENE,77,2.0,3.0,83,-99.99,,,-99.99,,2013-01-01 09:12:00,
2013-01-01 04:22:00,66.0,61.0,30.16,ENE,77,2.0,3.0,83,-99.99,,,-99.99,,2013-01-01 09:22:00,
2013-01-01 04:32:00,65.0,61.0,30.16,ESE,122,2.0,3.0,86,-99.99,,,-99.99,,2013-01-01 09:32:00,
2013-01-01 04:42:00,65.0,62.0,30.15,SSE,153,2.0,3.0,88,-99.99,,,-99.99,,2013-01-01 09:42:00,
2013-01-01 04:52:00,65.0,62.0,30.15,SSE,163,2.0,3.0,89,-99.99,,,-99.99,,2013-01-01 09:52:00,
2013-01-01 05:02:00,65.0,62.0,30.15,SSE,163,2.0,3.0,89,-99.99,,,-99.99,,2013-01-01 10:02:00,
2013-01-01 05:12:00,65.0,61.0,30.14,ESE,118,2.0,3.0,89,-99.99,,,-99.99,,2013-01-01 10:12:00,
2013-01-01 05:22:00,65.0,61.0,30.14,ESE,118,2.0,3.0,89,-99.99,,,-99.99,,2013-01-01 10:22:00,
2013-01-01 05:33:00,65.0,61.0,30.14,East,91,3.0,4.0,89,-99.99,,,-99.99,,2013-01-01 10:33:00,
2013-01-01 05:42:00,65.0,61.0,30.14,East,92,4.0,10.0,88,-99.99,,,-99.99,,2013-01-01 10:42:00,
2013-01-01 05:53:00,65.0,60.0,30.13,East,99,4.0,31.0,85,-99.99,,,-99.99,,2013-01-01 10:53:00,
2013-01-01 06:02:00,65.0,60.0,30.13,East,99,4.0,31.0,85,-99.99,,,-99.99,,2013-01-01 11:02:00,
2013-01-01 06:12:00,65.0,61.0,30.13,East,100,4.0,30.0,85,-99.99,,,-99.99,,2013-01-01 11:12:00,
2013-01-01 06:23:00,65.0,61.0,30.13,East,100,4.0,30.0,85,-99.99,,,-99.99,,2013-01-01 11:23:00,
2013-01-01 06:33:00,65.0,61.0,30.13,East,100,4.0,30.0,85,-99.99,,,-99.99,,2013-01-01 11:33:00,
2013-01-01 06:43:00,64.0,61.0,30.13,ESE,121,2.0,11.0,88,-99.99,,,-99.99,,2013-01-01 11:43:00,
2013-01-01 06:53:00,65.0,60.0,30.12,SSE,150,2.0,9.0,86,-99.99,,,-99.99,,2013-01-01 11:53:00,
2013-01-01 07:03:00,65.0,60.0,30.12,SSE,150,2.0,9.0,86,-99.99,,,-99.99,,2013-01-01 12:03:00,
2013-01-01 07:12:00,64.0,60.0,30.12,SSE,161,4.0,6.0,85,-99.99,,,-99.99,,2013-01-01 12:12:00,
2013-01-01 07:22:00,64.0,60.0,30.12,SSE,161,4.0,6.0,85,-99.99,,,-99.99,,2013-01-01 12:22:00,
2013-01-01 07:33:00,65.0,59.0,30.12,SSE,154,5.0,8.0,80,-99.99,,,-99.99,,2013-01-01 12:33:00,
2013-01-01 07:43:00,65.0,59.0,30.13,SSE,163,4.0,6.0,80,-99.99,,,-99.99,,2013-01-01 12:43:00,
2013-01-01 07:53:00,64.0,59.0,30.13,SSE,149,2.0,4.0,84,-99.99,,,-99.99,,2013-01-01 12:53:00,
2013-01-01 08:03:00,64.0,59.0,30.13,SSE,149,2.0,4.0,84,-99.99,,,-99.99,,2013-01-01 13:03:00,
2013-01-01 08:12:00,63.0,60.0,30.13,SSE,153,2.0,4.0,88,-99.99,,,-99.99,,2013-01-01 13:12:00,
2013-01-01 08:22:00,63.0,60.0,30.13,SSE,153,2.0,4.0,88,-99.99,,,-99.99,,2013-01-01 13:22:00,
2013-01-01 08:33:00,64.0,59.0,30.13,SSE,147,4.0,5.0,84,-99.99,,,-99.99,,2013-01-01 13:33:00,
2013-01-01 08:43:00,67.0,61.0,30.13,SSE,148,2.0,3.0,80,-99.99,,,-99.99,,2013-01-01 13:43:00,
2013-01-01 08:53:00,69.0,61.0,30.14,SSW,194,2.0,4.0,73,-99.99,,,-99.99,,2013-01-01 13:53:00,
2013-01-01 09:02:00,69.0,61.0,30.14,SSW,194,2.0,4.0,73,-99.99,,,-99.99,,2013-01-01 14:02:00,
2013-01-01 09:12:00,71.0,60.0,30.15,SSE,168,4.0,6.0,69,-99.99,,,-99.99,,2013-01-01 14:12:00,
2013-01-01 09:22:00,71.0,60.0,30.15,SSE,168,4.0,6.0,69,-99.99,,,-99.99,,2013-01-01 14:22:00,
2013-01-01 09:32:00,71.0,60.0,30.15,SSE,168,4.0,6.0,69,-99.99,,,-99.99,,2013-01-01 14:32:00,
2013-01-01 09:42:00,72.0,60.0,30.14,SSE,159,7.0,11.0,65,-99.99,,,-99.99,,2013-01-01 14:42:00,
2013-01-01 09:53:00,74.0,61.0,30.15,SSE,157,8.0,17.0,62,-99.99,,,-99.99,,2013-01-01 14:53:00,
2013-01-01 10:03:00,74.0,61.0,30.15,SSE,157,8.0,17.0,62,-99.99,,,-99.99,,2013-01-01 15:03:00,
2013-01-01 10:12:00,74.0,60.0,30.15,SSE,159,10.0,20.0,62,-99.99,,,-99.99,,2013-01-01 15:12:00,
2013-01-01 10:22:00,74.0,60.0,30.15,SSE,159,10.0,20.0,62,-99.99,,,-99.99,,2013-01-01 15:22:00,
2013-01-01 10:33:00,75.0,60.0,30.15,SSE,160,14.0,20.0,59,-99.99,,,-99.99,,2013-01-01 15:33:00,
2013-01-01 10:43:00,74.0,60.0,30.15,SSE,164,13.0,17.0,61,-99.99,,,-99.99,,2013-01-01 15:43:00,
2013-01-01 10:53:00,75.0,61.0,30.14,SSE,167,10.0,14.0,63,-99.99,,,-99.99,,2013-01-01 15:53:00,
2013-01-01 11:02:00,75.0,61.0,30.14,SSE,167,10.0,14.0,63,-99.99,,,-99.99,,2013-01-01 16:02:00,
2013-01-01 11:12:00,75.0,61.0,30.13,SSE,162,14.0,23.0,62,-99.99,,,-99.99,,2013-01-01 16:12:00,
2013-01-01 11:22:00,75.0,61.0,30.13,SSE,162,14.0,23.0,62,-99.99,,,-99.99,,2013-01-01 16:22:00,
2013-01-01 11:33:00,76.0,61.0,30.13,South,174,15.0,23.0,60,-99.99,,,-99.99,,2013-01-01 16:33:00,
2013-01-01 11:43:00,76.0,61.0,30.13,South,176,13.0,23.0,58,-99.99,,,-99.99,,2013-01-01 16:43:00,
2013-01-01 11:53:00,77.0,61.0,30.13,South,174,14.0,21.0,58,-99.99,,,-99.99,,2013-01-01 16:53:00,
2013-01-01 12:02:00,77.0,61.0,30.13,South,174,14.0,21.0,58,-99.99,,,-99.99,,2013-01-01 17:02:00,
2013-01-01 12:12:00,76.0,62.0,30.12,South,175,13.0,20.0,61,-99.99,,,-99.99,,2013-01-01 17:12:00,
2013-01-01 12:23:00,76.0,62.0,30.12,South,175,13.0,20.0,61,-99.99,,,-99.99,,2013-01-01 17:23:00,
2013-01-01 12:33:00,76.0,62.0,30.12,South,175,13.0,20.0,61,-99.99,,,-99.99,,2013-01-01 17:33:00,
2013-01-01 12:43:00,77.0,62.0,30.10,South,172,13.0,20.0,59,-99.99,,,-99.99,,2013-01-01 17:43:00,
2013-01-01 12:53:00,77.0,62.0,30.09,South,171,13.0,20.0,58,-99.99,,,-99.99,,2013-01-01 17:53:00,
2013-01-01 13:03:00,77.0,62.0,30.09,South,171,13.0,20.0,58,-99.99,,,-99.99,,2013-01-01 18:03:00,
2013-01-01 13:13:00,78.0,62.0,30.08,South,172,14.0,21.0,57,-99.99,,,-99.99,,2013-01-01 18:13:00,
2013-01-01 13:23:00,77.0,61.0,30.07,South,179,15.0,22.0,56,-99.99,,,-99.99,,2013-01-01 18:23:00,
2013-01-01 13:33:00,77.0,61.0,30.07,South,179,15.0,22.0,56,-99.99,,,-99.99,,2013-01-01 18:33:00,
2013-01-01 13:43:00,78.0,61.0,30.07,South,176,13.0,22.0,56,-99.99,,,-99.99,,2013-01-01 18:43:00,
2013-01-01 13:53:00,78.0,62.0,30.07,South,175,12.0,20.0,57,-99.99,,,-99.99,,2013-01-01 18:53:00,
2013-01-01 14:02:00,78.0,62.0,30.07,South,175,12.0,20.0,57,-99.99,,,-99.99,,2013-01-01 19:02:00,
2013-01-01 14:12:00,77.0,62.0,30.06,South,172,12.0,21.0,58,-99.99,,,-99.99,,2013-01-01 19:12:00,
2013-01-01 14:22:00,77.0,62.0,30.06,South,172,12.0,21.0,58,-99.99,,,-99.99,,2013-01-01 19:22:00,
2013-01-01 14:33:00,78.0,62.0,30.05,South,177,13.0,18.0,57,-99.99,,,-99.99,,2013-01-01 19:33:00,
2013-01-01 14:43:00,78.0,62.0,30.05,SSE,165,12.0,19.0,57,-99.99,,,-99.99,,2013-01-01 19:43:00,
2013-01-01 14:53:00,78.0,62.0,30.05,SSE,157,11.0,19.0,58,-99.99,,,-99.99,,2013-01-01 19:53:00,
2013-01-01 15:02:00,78.0,62.0,30.05,SSE,157,11.0,19.0,58,-99.99,,,-99.99,,2013-01-01 20:02:00,
2013-01-01 15:13:00,78.0,62.0,30.05,SSE,157,11.0,19.0,58,-99.99,,,-99.99,,2013-01-01 20:13:00,
2013-01-01 15:23:00,78.0,62.0,30.05,South,180,11.0,16.0,57,-99.99,,,-99.99,,2013-01-01 20:23:00,
2013-01-01 15:32:00,77.0,61.0,30.05,South,177,9.0,14.0,57,-99.99,,,-99.99,,2013-01-01 20:32:00,
2013-01-01 15:42:00,77.0,62.0,30.05,SSE,161,9.0,14.0,58,-99.99,,,-99.99,,2013-01-01 20:42:00,
2013-01-01 15:53:00,78.0,62.0,30.04,SSE,160,9.0,15.0,58,-99.99,,,-99.99,,2013-01-01 20:53:00,
2013-01-01 16:03:00,78.0,62.0,30.04,SSE,160,9.0,15.0,58,-99.99,,,-99.99,,2013-01-01 21:03:00,
2013-01-01 16:13:00,78.0,62.0,30.04,South,175,9.0,14.0,57,-99.99,,,-99.99,,2013-01-01 21:13:00,
2013-01-01 16:22:00,78.0,62.0,30.04,South,175,9.0,14.0,57,-99.99,,,-99.99,,2013-01-01 21:22:00,
2013-01-01 16:33:00,78.0,62.0,30.04,SSE,166,10.0,16.0,58,-99.99,,,-99.99,,2013-01-01 21:33:00,
2013-01-01 16:42:00,77.0,62.0,30.04,South,171,10.0,14.0,60,-99.99,,,-99.99,,2013-01-01 21:42:00,
2013-01-01 16:53:00,75.0,62.0,30.04,SSE,160,7.0,12.0,63,-99.99,,,-99.99,,2013-01-01 21:53:00,
2013-01-01 17:03:00,75.0,62.0,30.04,SSE,160,7.0,12.0,63,-99.99,,,-99.99,,2013-01-01 22:03:00,
2013-01-01 17:12:00,75.0,62.0,30.04,SSE,155,8.0,12.0,63,-99.99,,,-99.99,,2013-01-01 22:12:00,
2013-01-01 17:22:00,75.0,62.0,30.04,SSE,155,8.0,12.0,63,-99.99,,,-99.99,,2013-01-01 22:22:00,
2013-01-01 17:33:00,74.0,62.0,30.04,SSE,164,8.0,14.0,65,-99.99,,,-99.99,,2013-01-01 22:33:00,
2013-01-01 17:43:00,74.0,62.0,30.04,SSE,161,8.0,11.0,65,-99.99,,,-99.99,,2013-01-01 22:43:00,
2013-01-01 17:53:00,74.0,63.0,30.04,SSE,154,7.0,10.0,68,-99.99,,,-99.99,,2013-01-01 22:53:00,
2013-01-01 18:03:00,74.0,63.0,30.04,SSE,154,7.0,10.0,68,-99.99,,,-99.99,,2013-01-01 23:03:00,
2013-01-01 18:12:00,73.0,64.0,30.04,SSE,154,5.0,9.0,72,-99.99,,,-99.99,,2013-01-01 23:12:00,
2013-01-01 18:22:00,73.0,64.0,30.04,SSE,154,5.0,9.0,72,-99.99,,,-99.99,,2013-01-01 23:22:00,
2013-01-01 18:32:00,73.0,64.0,30.04,SSE,154,5.0,9.0,72,-99.99,,,-99.99,,2013-01-01 23:32:00,
2013-01-01 18:42:00,73.0,63.0,30.04,SSE,151,6.0,9.0,69,-99.99,,,-99.99,,2013-01-01 23:42:00,
2013-01-01 18:53:00,72.0,63.0,30.04,SSE,155,5.0,9.0,70,-99.99,,,-99.99,,2013-01-01 23:53:00,
2013-01-01 19:03:00,72.0,63.0,30.04,SSE,155,5.0,9.0,70,-99.99,,,-99.99,,2013-01-02 00:03:00,
2013-01-01 19:12:00,72.0,63.0,30.05,SSE,155,5.0,7.0,71,-99.99,,,-99.99,,2013-01-02 00:12:00,
2013-01-01 19:22:00,72.0,63.0,30.05,SSE,155,5.0,7.0,71,-99.99,,,-99.99,,2013-01-02 00:22:00,
2013-01-01 19:32:00,72.0,63.0,30.05,SSE,152,4.0,6.0,72,-99.99,,,-99.99,,2013-01-02 00:32:00,
2013-01-01 19:43:00,72.0,63.0,30.05,SSE,156,3.0,4.0,73,-99.99,,,-99.99,,2013-01-02 00:43:00,
2013-01-01 19:53:00,72.0,63.0,30.06,South,169,2.0,4.0,73,-99.99,,,-99.99,,2013-01-02 00:53:00,
2013-01-01 20:02:00,72.0,63.0,30.06,South,169,2.0,4.0,73,-99.99,,,-99.99,,2013-01-02 01:02:00,
2013-01-01 20:12:00,71.0,63.0,30.05,SSE,149,2.0,3.0,76,-99.99,,,-99.99,,2013-01-02 01:12:00,
2013-01-01 20:22:00,71.0,63.0,30.05,SSE,149,2.0,3.0,76,-99.99,,,-99.99,,2013-01-02 01:22:00,
2013-01-01 20:32:00,70.0,64.0,30.06,SSE,164,2.0,3.0,79,-99.99,,,-99.99,,2013-01-02 01:32:00,
2013-01-01 20:42:00,69.0,64.0,30.06,SE,135,2.0,3.0,83,-99.99,,,-99.99,,2013-01-02 01:42:00,
2013-01-01 20:53:00,68.0,65.0,30.06,SE,129,3.0,4.0,89,-99.99,,,-99.99,,2013-01-02 01:53:00,
2013-01-01 21:02:00,68.0,65.0,30.06,SE,129,3.0,4.0,89,-99.99,,,-99.99,,2013-01-02 02:02:00,
2013-01-01 21:12:00,67.0,64.0,30.06,SE,142,3.0,4.0,91,-99.99,,,-99.99,,2013-01-02 02:12:00,
2013-01-01 21:22:00,67.0,64.0,30.06,SE,142,3.0,4.0,91,-99.99,,,-99.99,,2013-01-02 02:22:00,
2013-01-01 21:32:00,67.0,64.0,30.06,SE,142,3.0,4.0,91,-99.99,,,-99.99,,2013-01-02 02:32:00,
2013-01-01 21:42:00,67.0,64.0,30.06,ESE,122,3.0,5.0,87,-99.99,,,-99.99,,2013-01-02 02:42:00,
2013-01-01 21:53:00,68.0,62.0,30.07,SE,136,3.0,5.0,80,-99.99,,,-99.99,,2013-01-02 02:53:00,
2013-01-01 22:02:00,68.0,62.0,30.07,SE,136,3.0,5.0,80,-99.99,,,-99.99,,2013-01-02 03:02:00,
2013-01-01 22:12:00,69.0,62.0,30.07,SE,142,3.0,4.0,80,-99.99,,,-99.99,,2013-01-02 03:12:00,
2013-01-01 22:22:00,69.0,62.0,30.07,SE,142,3.0,4.0,80,-99.99,,,-99.99,,2013-01-02 03:22:00,
2013-01-01 22:32:00,68.0,62.0,30.07,SE,129,3.0,5.0,81,-99.99,,,-99.99,,2013-01-02 03:32:00,
2013-01-01 22:42:00,67.0,62.0,30.06,SE,134,3.0,5.0,82,-99.99,,,-99.99,,2013-01-02 03:42:00,
2013-01-01 22:53:00,67.0,62.0,30.06,SE,130,4.0,6.0,81,-99.99,,,-99.99,,2013-01-02 03:53:00,
2013-01-01 23:03:00,67.0,62.0,30.06,SE,130,4.0,6.0,81,-99.99,,,-99.99,,2013-01-02 04:03:00,
2013-01-01 23:12:00,67.0,61.0,30.06,SE,136,4.0,5.0,82,-99.99,,,-99.99,,2013-01-02 04:12:00,
2013-01-01 23:22:00,67.0,61.0,30.06,SE,136,4.0,5.0,82,-99.99,,,-99.99,,2013-01-02 04:22:00,
2013-01-01 23:32:00,67.0,61.0,30.06,SE,129,3.0,5.0,83,-99.99,,,-99.99,,2013-01-02 04:32:00,
2013-01-01 23:42:00,66.0,61.0,30.05,SE,131,4.0,5.0,83,-99.99,,,-99.99,,2013-01-02 04:42:00,
2013-01-01 23:53:00,66.0,61.0,30.05,SE,129,3.0,5.0,84,-99.99,,,-99.99,,2013-01-02 04:53:00,